This demonstration page uses our WeatherBlox Daily Observations layout. Learn more.

Hourly Observations for June 22, 2020

Temp ( °F °C ) Dew Point ( °F °C ) Humidity (%) Winds ( mph kmh ) Pressure ( in mb ) Visibility ( mi km ) Precip ( " mm )
12:15 am 00:15 Partly Cloudy 65 18.1 61 16 88 88 W 7 11 29.8 1009 10 16.0934 0 0
12:35 am 00:35 Clear 64 18 61 16 88 88 WNW 7 11 29.82 1010 10 16.0934 0 0
12:55 am 00:55 Clear 64 18 61 15.9 88 88 WNW 9 15 29.83 1010 10 16.0934 0 0
1:15 am 01:15 Clear 64 17.8 61 16 89 89 NW 9 15 29.85 1011 10 16.0934 0 0
1:35 am 01:35 Clear 65 18.2 61 16.2 88 88 NNW 7 11 29.83 1010 10 16.0934 0 0
1:55 am 01:55 Partly Cloudy 66 18.8 62 16.6 87 87 NNW 9 15 29.83 1010 10 16.0934 0 0
2:15 am 02:15 Mostly Cloudy 66 19 62 16.8 87 87 N 7 11 29.82 1010 10 16.0934 0 0
2:35 am 02:35 Partly Cloudy 65 18.5 62 16.6 89 89 NW 6 9 29.82 1010 10 16.0934 0 0
2:55 am 02:55 Clear 65 18.2 61 16.1 88 88 NNW 3 6 29.8 1009 10 16.0934 0 0
3:15 am 03:15 Clear 64 17.8 61 16 89 89 Calm 29.81 1009 10 16.0934 0 0
3:35 am 03:35 Clear 63 17.1 61 16 93 93 W 3 6 29.82 1010 10 16.0934 0 0
3:55 am 03:55 Clear 62 16.8 60 15.8 94 94 Calm 29.82 1010 10 16.0934 0 0
4:15 am 04:15 Clear 62 16.8 61 16 95 95 SW 5 7 29.83 1010 10 16.0934 0 0
4:35 am 04:35 Partly Cloudy 62 16.8 60 15.8 94 94 SW 3 6 29.83 1010 10 16.0934 0 0
4:55 am 04:55 Partly Cloudy 62 16.4 60 15.5 94 94 Calm 29.84 1010 10 16.0934 0 0
5:15 am 05:15 Clear 60 15.4 58 14.6 95 95 Calm 29.86 1011 10 16.0934 0 0
5:35 am 05:35 Mostly Cloudy 60 15.5 59 15 97 97 Calm 29.87 1011 10 16.0934 0 0
5:55 am 05:55 Partly Cloudy 60 15.6 59 15.2 97 97 Calm 29.86 1011 10 16.0934 0 0
6:15 am 06:15 Sunny 59 14.9 58 14.4 97 97 Calm 29.87 1012 7 11.26538 0 0
6:35 am 06:35 Sunny with Mist and Fog 59 15 58 14.6 97 97 Calm 29.88 1012 5 8.0467 0 0
6:55 am 06:55 Sunny 61 16 60 15.6 97 97 NNW 5 7 29.88 1012 10 16.0934 0 0
7:15 am 07:15 Sunny 62 16.9 61 16.2 96 96 NNW 3 6 29.88 1012 10 16.0934 0 0
7:35 am 07:35 Sunny 64 17.7 62 16.5 93 93 Calm 29.89 1012 10 16.0934 0 0
7:55 am 07:55 Sunny 64 18 62 16.4 90 90 Calm 29.88 1012 10 16.0934 0 0
8:15 am 08:15 Sunny 66 18.7 62 16.6 88 88 N 5 7 29.9 1012 10 16.0934 0 0
8:35 am 08:35 Sunny 67 19.5 61 16.2 81 81 NNE 5 7 29.89 1012 10 16.0934 0 0
8:55 am 08:55 Sunny 68 20 60 15.7 76 76 NNE 7 11 29.9 1012 10 16.0934 0 0
9:15 am 09:15 Partly Cloudy 68 20 60 15.7 76 76 N 7 11 29.91 1013 10 16.0934 0 0
9:35 am 09:35 Mostly Cloudy 69 20.8 61 16.1 75 75 NNE 9 15 29.9 1013 10 16.0934 0 0
9:55 am 09:55 Mostly Cloudy 70 21.2 61 16.3 74 74 NNE 10 17 29.9 1012 10 16.0934 0 0
10:15 am 10:15 Sunny 72 22.2 62 16.5 70 70 NE 12 19 29.9 1012 10 16.0934 0 0
10:35 am 10:35 Sunny 73 22.5 61 16.3 68 68 NNE 7 11 29.9 1012 10 16.0934 0 0
10:55 am 10:55 Sunny 74 23.3 61 16.2 64 64 NNE 12 19 29.89 1012 10 16.0934 0 0
11:15 am 11:15 Sunny 75 23.8 60 15.5 60 60 N 9 15 29.89 1012 7 11.26538 0 0
11:35 am 11:35 Sunny 75 24.1 58 14.7 56 56 NNE 8 13 29.88 1012 10 16.0934 0 0
11:55 am 11:55 Sunny 76 24.5 59 14.9 55 55 NNW 6 9 29.88 1012 10 16.0934 0 0
12:15 pm 12:15 Sunny 76 24.6 59 14.8 55 55 NNW 7 11 29.88 1012 10 16.0934 0 0
12:35 pm 12:35 Sunny 77 25.1 59 15 54 54 NNW 12 19 29.88 1012 10 16.0934 0 0
12:55 pm 12:55 Sunny 78 25.3 58 14.4 51 51 N 9 15 29.87 1012 10 16.0934 0 0
1:15 pm 13:15 Sunny 78 25.6 59 14.8 51 51 NW 8 13 29.86 1011 10 16.0934 0 0
1:35 pm 13:35 Partly Cloudy 79 26.2 59 15.2 51 51 NW 9 15 29.86 1011 10 16.0934 0 0
1:55 pm 13:55 Partly Cloudy 80 26.4 59 15.1 50 50 NW 9 15 29.86 1011 10 16.0934 0 0
2:15 pm 14:15 Partly Cloudy 79 26.2 58 14.7 49 49 NW 10 17 29.85 1011 10 16.0934 0 0
2:35 pm 14:35 Partly Cloudy 80 26.5 57 13.8 46 46 NNW 10 17 29.84 1011 10 16.0934 0 0
2:55 pm 14:55 Partly Cloudy 80 26.6 57 14 46 46 N 6 9 29.83 1010 10 16.0934 0 0
3:15 pm 15:15 Partly Cloudy 81 27.2 56 13.5 43 43 NW 8 13 29.83 1010 10 16.0934 0 0
3:35 pm 15:35 Partly Cloudy 81 27.2 55 13 42 42 NNW 7 11 29.83 1010 10 16.0934 0 0
3:55 pm 15:55 Partly Cloudy 82 27.9 56 13.3 41 41 NNW 10 17 29.82 1010 10 16.0934 0 0
4:15 pm 16:15 Partly Cloudy 82 27.5 56 13.6 42 42 WNW 10 17 29.82 1010 10 16.0934 0 0
4:35 pm 16:35 Partly Cloudy 82 28 55 13 40 40 NNW 12 19 29.81 1010 10 16.0934 0 0
4:55 pm 16:55 Mostly Cloudy 82 27.6 55 13 41 41 NNW 10 17 29.82 1010 10 16.0934 0 0
5:15 pm 17:15 Partly Cloudy 83 28.4 54 12.2 37 37 NNW 8 13 29.8 1009 10 16.0934 0 0
5:35 pm 17:35 Partly Cloudy 83 28.1 53 11.8 36 36 NNW 9 15 29.81 1010 10 16.0934 0 0
5:55 pm 17:55 Partly Cloudy 81 27.2 53 11.7 38 38 NNW 10 17 29.81 1009 10 16.0934 0 0
6:15 pm 18:15 Partly Cloudy 82 28 53 11.8 37 37 N 13 20 29.8 1009 10 16.0934 0 0
6:35 pm 18:35 Mostly Cloudy 80 26.6 54 12 40 40 N 12 19 29.81 1010 10 16.0934 0 0
6:55 pm 18:55 Cloudy 77 24.9 58 14.5 53 53 NNE 22 35 29.85 1011 10 16.0934 0 0
7:15 pm 19:15 Mostly Cloudy with Nearby Thunderstorms 73 22.9 58 14.5 59 59 NE 20 31 29.88 1012 10 16.0934 0 0
7:35 pm 19:35 Cloudy 71 21.6 59 15 66 66 NNW 9 15 29.93 1014 10 16.0934 0 0
7:55 pm 19:55 Cloudy with Light Rain 70 21.3 61 16 72 72 NNE 5 7 29.92 1013 10 16.0934 0 0
8:15 pm 20:15 Mostly Cloudy with Nearby Thunderstorms 71 21.5 57 13.8 62 62 N 10 17 29.92 1013 10 16.0934 0 0
8:35 pm 20:35 Mostly Cloudy 69 20.6 58 14.4 68 68 N 8 13 29.93 1014 10 16.0934 0 0
8:55 pm 20:55 Sunny 68 20 59 15.2 74 74 NNE 12 19 29.94 1014 10 16.0934 0 0
9:15 pm 21:15 Clear 67 19.3 60 15.7 80 80 NNE 9 15 29.94 1014 10 16.0934 0 0
9:35 pm 21:35 Clear 65 18.5 60 15.8 84 84 NNE 7 11 29.94 1014 10 16.0934 0 0
9:55 pm 21:55 Clear 64 17.6 61 15.9 90 90 Calm 29.96 1014 10 16.0934 0 0
10:15 pm 22:15 Clear 63 17.2 60 15.5 90 90 N 3 6 29.99 1016 10 16.0934 0 0
10:35 pm 22:35 Clear 62 16.5 60 15.4 93 93 N 3 6 30.01 1016 10 16.0934 0 0
10:55 pm 22:55 Clear 61 16.3 59 15.2 93 93 Calm 30.02 1017 10 16.0934 0 0
11:15 pm 23:15 Clear 62 16.9 60 15.8 93 93 Calm 30 1016 10 16.0934 0 0
11:35 pm 23:35 Clear 61 16.3 59 15.1 93 93 NNW 3 6 30.02 1017 10 16.0934 0 0
11:55 pm 23:55 Clear 61 16.2 59 15.2 94 94 NW 3 6 30.01 1016 10 16.0934 0 0

Powered by AerisWeather